Hourly Data Report for October 04, 2013

All times are specified in Local Standard Time (LST). Add 1 hour to adjust for Daylight Saving Time where and when it is observed.

PETAWAWA AWOS 2
ONTARIO

45°57'00.000" N
77°19'00.000" W
130.10 m
6106396
71625
YWA

Download Data

Hourly Data (October 2013)
Hourly Data Report for October 4, 2013
Temp Definition
°C
Dew Point Temp Definition
°C
Rel Hum Definition
%
Wind Dir Definition
10's deg

Wind Spd Definition
km/h
Visibility Definition
km
Stn Press Definition
kPa
Hmdx Definition


Wind Chill Definition


Weather Definition


TIME
00:00 14.0 9.1 72   0 15.0 100.26      
01:00 13.8 10.6 81   0 15.0 100.28     Rain
02:00 14.5 9.9 74   0 15.0 100.26      
03:00 14.6 9.2 70   0 15.0 100.26      
04:00 15.4 8.0 61 36 9 15.0 100.29     Rain
05:00 14.6 8.6 67 8 6 15.0 100.30      
06:00 14.8 7.8 63 9 7 15.0 100.32      
07:00 14.2 8.6 69 7 7 15.0 100.41     Rain
08:00 12.7 11.6 93 11 4 15.0 100.47     Rain
09:00 13.6 11.9 89   0 15.0 100.50     Rain
10:00 13.9 11.0 83 8 6 15.0 100.47     Rain
11:00 13.8 11.2 84   0 15.0 100.45     Rain
12:00 14.2 11.7 85 2 6 15.0 100.44      
13:00 14.8 10.7 76   0 15.0 100.43      
14:00 15.2 10.2 72 11 4 15.0 100.37      
15:00 15.3 10.2 72   0 15.0 100.37      
16:00 15.4 10.7 74 32 9 15.0 100.44      
17:00 15.3 10.8 75 31 6 15.0 100.44      
18:00 14.1 11.4 84   0 15.0 100.44      
19:00 13.7 11.2 85 32 6 15.0 100.48      
20:00 14.1 10.6 79 34 7 15.0 100.46      
21:00 13.8 9.4 75 27 4 15.0 100.49      
22:00 13.2 10.2 82 26 6 15.0 100.52      
23:00 13.4 9.8 79 26 4 15.0 100.53      

Notes on Data Quality.

Legend

  • E = Estimated
  • M = Missing
  • NA = Not Available
  • ‡ = Partner data that is not subject to review by the National Climate Archives
Date modified: